Location: Sungai Jaoh
(2.9167°N, 113.9167°E)
Time: 09:08:46
(UTC+00:00)

N. Korean satellite - Visible Passes

Search period start: 26 September 2021 00:00
Search period end: 06 October 2021 00:00
Orbit: 449 x 498 km, 97.3° (Epoch: 25 September)

Date Brightness Start Highest point End Pass type
(mag) Time Alt. Az. Time Alt. Az. Time Alt. Az.
26 Sep 9.9 20:32:50 10° ENE 20:34:39 13° E 20:36:29 10° SE visible
27 Sep 6.9 21:36:25 10° N 21:39:53 45° WNW 21:43:24 10° SSW visible
28 Sep 7.3 21:08:35 10° NNE 21:12:09 55° E 21:15:44 10° S visible
29 Sep 9.5 20:41:45 10° NE 20:44:24 19° E 20:47:03 10° SSE visible
30 Sep 7.4 21:46:21 10° NNW 21:49:35 30° WNW 21:52:50 10° SW visible
01 Oct 6.6 21:18:10 10° NNE 21:21:48 84° E 21:25:28 10° S visible
02 Oct 8.9 20:50:53 10° NE 20:54:00 27° E 20:57:09 10° SSE visible
04 Oct 6.5 21:27:44 10° N 21:31:21 64° W 21:34:58 10° SSW visible
05 Oct 8.1 21:00:06 10° NNE 21:03:31 39° E 21:06:57 10° S visible
